#datetime,building,power
2023-08-21T00:00:00,axn,30.74
2023-08-21T00:01:00,axn,30.57
2023-08-21T00:02:00,axn,30.58
2023-08-21T00:03:00,axn,30.84
2023-08-21T00:04:00,axn,29.94
2023-08-21T00:05:00,axn,29.99
2023-08-21T00:06:00,axn,29.91
2023-08-21T00:07:00,axn,30.02
2023-08-21T00:08:00,axn,29.96
2023-08-21T00:09:00,axn,30.53
2023-08-21T00:10:00,axn,30.66
2023-08-21T00:11:00,axn,30.59
2023-08-21T00:12:00,axn,30.63
2023-08-21T00:13:00,axn,29.93
2023-08-21T00:14:00,axn,30.06
2023-08-21T00:15:00,axn,29.87
2023-08-21T00:16:00,axn,29.89
2023-08-21T00:17:00,axn,29.87
2023-08-21T00:18:00,axn,30.55
2023-08-21T00:19:00,axn,30.48
2023-08-21T00:20:00,axn,30.58
2023-08-21T00:21:00,axn,30.53
2023-08-21T00:22:00,axn,30.64
2023-08-21T00:23:00,axn,29.86
2023-08-21T00:24:00,axn,29.81
2023-08-21T00:25:00,axn,29.82
2023-08-21T00:26:00,axn,30.03
2023-08-21T00:27:00,axn,30.00
2023-08-21T00:28:00,axn,30.58
2023-08-21T00:29:00,axn,30.76
2023-08-21T00:30:00,axn,30.68
2023-08-21T00:31:00,axn,30.62
2023-08-21T00:32:00,axn,30.55
2023-08-21T00:33:00,axn,29.99
2023-08-21T00:34:00,axn,29.98
2023-08-21T00:35:00,axn,29.98
2023-08-21T00:36:00,axn,29.94
2023-08-21T00:37:00,axn,30.12
2023-08-21T00:38:00,axn,30.44
2023-08-21T00:39:00,axn,30.76
2023-08-21T00:40:00,axn,30.46
2023-08-21T00:41:00,axn,30.25
2023-08-21T00:42:00,axn,30.33
2023-08-21T00:43:00,axn,29.70
2023-08-21T00:44:00,axn,29.79
2023-08-21T00:45:00,axn,29.74
2023-08-21T00:46:00,axn,40.15
2023-08-21T00:47:00,axn,40.23
2023-08-21T00:48:00,axn,40.72
2023-08-21T00:49:00,axn,40.63
2023-08-21T00:50:00,axn,30.52
2023-08-21T00:51:00,axn,30.67
2023-08-21T00:52:00,axn,30.91
2023-08-21T00:53:00,axn,29.92
2023-08-21T00:54:00,axn,29.95
2023-08-21T00:55:00,axn,29.92
2023-08-21T00:56:00,axn,29.88
2023-08-21T00:57:00,axn,29.92
2023-08-21T00:58:00,axn,30.26
2023-08-21T00:59:00,axn,30.45
2023-08-21T01:00:00,axn,30.33
2023-08-21T01:01:00,axn,30.37
2023-08-21T01:02:00,axn,30.31
2023-08-21T01:03:00,axn,29.69
2023-08-21T01:04:00,axn,30.10
2023-08-21T01:05:00,axn,29.98
2023-08-21T01:06:00,axn,29.94
2023-08-21T01:07:00,axn,29.82
2023-08-21T01:08:00,axn,30.44
2023-08-21T01:09:00,axn,30.81
2023-08-21T01:10:00,axn,30.86
2023-08-21T01:11:00,axn,30.49
2023-08-21T01:12:00,axn,29.96
2023-08-21T01:13:00,axn,30.01
2023-08-21T01:14:00,axn,30.06
2023-08-21T01:15:00,axn,30.00
2023-08-21T01:16:00,axn,29.80
2023-08-21T01:17:00,axn,30.35
2023-08-21T01:18:00,axn,30.29
2023-08-21T01:19:00,axn,30.45
2023-08-21T01:20:00,axn,30.57
2023-08-21T01:21:00,axn,30.70
2023-08-21T01:22:00,axn,30.15
2023-08-21T01:23:00,axn,30.12
2023-08-21T01:24:00,axn,30.25
2023-08-21T01:25:00,axn,30.19
2023-08-21T01:26:00,axn,30.47
2023-08-21T01:27:00,axn,30.78
2023-08-21T01:28:00,axn,30.68
2023-08-21T01:29:00,axn,30.64
2023-08-21T01:30:00,axn,31.25
2023-08-21T01:31:00,axn,30.05
2023-08-21T01:32:00,axn,29.89
2023-08-21T01:33:00,axn,30.29
2023-08-21T01:34:00,axn,29.99
2023-08-21T01:35:00,axn,29.96
2023-08-21T01:36:00,axn,30.49
2023-08-21T01:37:00,axn,30.55
2023-08-21T01:38:00,axn,30.43
2023-08-21T01:39:00,axn,30.66
2023-08-21T01:40:00,axn,30.62
2023-08-21T01:41:00,axn,30.08
2023-08-21T01:42:00,axn,29.92
2023-08-21T01:43:00,axn,30.01
2023-08-21T01:44:00,axn,29.94
2023-08-21T01:45:00,axn,29.99
2023-08-21T01:46:00,axn,30.53
2023-08-21T01:47:00,axn,30.51
2023-08-21T01:48:00,axn,30.46
2023-08-21T01:49:00,axn,30.52
2023-08-21T01:50:00,axn,30.44
2023-08-21T01:51:00,axn,29.86
2023-08-21T01:52:00,axn,29.81
2023-08-21T01:53:00,axn,29.79
2023-08-21T01:54:00,axn,29.82
2023-08-21T01:55:00,axn,36.08
2023-08-21T01:56:00,axn,36.44
2023-08-21T01:57:00,axn,36.20
2023-08-21T01:58:00,axn,30.34
2023-08-21T01:59:00,axn,30.23
2023-08-21T02:00:00,axn,30.29
2023-08-21T02:01:00,axn,29.72
2023-08-21T02:02:00,axn,29.74
2023-08-21T02:03:00,axn,29.69
2023-08-21T02:04:00,axn,29.74
2023-08-21T02:05:00,axn,29.81
2023-08-21T02:06:00,axn,30.34
2023-08-21T02:07:00,axn,30.31
2023-08-21T02:08:00,axn,30.24
2023-08-21T02:09:00,axn,30.26
2023-08-21T02:10:00,axn,29.63
2023-08-21T02:11:00,axn,29.73
2023-08-21T02:12:00,axn,29.84
2023-08-21T02:13:00,axn,29.77
2023-08-21T02:14:00,axn,29.86
2023-08-21T02:15:00,axn,33.07
2023-08-21T02:16:00,axn,33.18
2023-08-21T02:17:00,axn,33.21
2023-08-21T02:18:00,axn,30.27
2023-08-21T02:19:00,axn,30.29
2023-08-21T02:20:00,axn,29.54
2023-08-21T02:21:00,axn,29.50
2023-08-21T02:22:00,axn,29.54
2023-08-21T02:23:00,axn,29.43
2023-08-21T02:24:00,axn,29.54
2023-08-21T02:25:00,axn,30.27
2023-08-21T02:26:00,axn,30.32
2023-08-21T02:27:00,axn,30.35
2023-08-21T02:28:00,axn,30.13
2023-08-21T02:29:00,axn,30.25
2023-08-21T02:30:00,axn,29.97
2023-08-21T02:31:00,axn,29.69
2023-08-21T02:32:00,axn,29.79
2023-08-21T02:33:00,axn,29.72
2023-08-21T02:34:00,axn,29.87
2023-08-21T02:35:00,axn,30.44
2023-08-21T02:36:00,axn,30.52
2023-08-21T02:37:00,axn,30.57
2023-08-21T02:38:00,axn,30.92
2023-08-21T02:39:00,axn,30.62
2023-08-21T02:40:00,axn,29.90
2023-08-21T02:41:00,axn,29.87
2023-08-21T02:42:00,axn,30.15
2023-08-21T02:43:00,axn,29.83
2023-08-21T02:44:00,axn,29.92
2023-08-21T02:45:00,axn,30.67
2023-08-21T02:46:00,axn,30.61
2023-08-21T02:47:00,axn,30.64
2023-08-21T02:48:00,axn,30.66
2023-08-21T02:49:00,axn,30.14
2023-08-21T02:50:00,axn,30.10
2023-08-21T02:51:00,axn,30.38
2023-08-21T02:52:00,axn,29.96
2023-08-21T02:53:00,axn,30.03
2023-08-21T02:54:00,axn,30.65
2023-08-21T02:55:00,axn,30.84
2023-08-21T02:56:00,axn,30.67
2023-08-21T02:57:00,axn,30.69
2023-08-21T02:58:00,axn,30.68
2023-08-21T02:59:00,axn,30.01
2023-08-21T03:00:00,axn,30.00
2023-08-21T03:01:00,axn,29.97
2023-08-21T03:02:00,axn,29.93
2023-08-21T03:03:00,axn,29.85
2023-08-21T03:04:00,axn,30.57
2023-08-21T03:05:00,axn,30.52
2023-08-21T03:06:00,axn,30.32
2023-08-21T03:07:00,axn,30.27
2023-08-21T03:08:00,axn,29.56
2023-08-21T03:09:00,axn,29.87
2023-08-21T03:10:00,axn,29.85
2023-08-21T03:11:00,axn,32.80
2023-08-21T03:12:00,axn,32.75
2023-08-21T03:13:00,axn,30.44
2023-08-21T03:14:00,axn,30.41
2023-08-21T03:15:00,axn,30.63
2023-08-21T03:16:00,axn,30.53
2023-08-21T03:17:00,axn,30.45
2023-08-21T03:18:00,axn,29.73
2023-08-21T03:19:00,axn,29.75
2023-08-21T03:20:00,axn,29.64
2023-08-21T03:21:00,axn,29.59
2023-08-21T03:22:00,axn,29.96
2023-08-21T03:23:00,axn,30.52
2023-08-21T03:24:00,axn,30.06
2023-08-21T03:25:00,axn,30.11
2023-08-21T03:26:00,axn,29.98
2023-08-21T03:27:00,axn,29.98
2023-08-21T03:28:00,axn,29.38
2023-08-21T03:29:00,axn,29.46
2023-08-21T03:30:00,axn,29.52
2023-08-21T03:31:00,axn,29.46
2023-08-21T03:32:00,axn,29.51
2023-08-21T03:33:00,axn,30.00
2023-08-21T03:34:00,axn,30.09
2023-08-21T03:35:00,axn,30.02
2023-08-21T03:36:00,axn,30.56
2023-08-21T03:37:00,axn,30.21
2023-08-21T03:38:00,axn,29.62
2023-08-21T03:39:00,axn,29.63
2023-08-21T03:40:00,axn,29.77
2023-08-21T03:41:00,axn,29.74
2023-08-21T03:42:00,axn,30.16
2023-08-21T03:43:00,axn,30.33
2023-08-21T03:44:00,axn,30.37
2023-08-21T03:45:00,axn,30.46
2023-08-21T03:46:00,axn,30.75
2023-08-21T03:47:00,axn,30.32
2023-08-21T03:48:00,axn,29.75
2023-08-21T03:49:00,axn,29.68
2023-08-21T03:50:00,axn,29.67
2023-08-21T03:51:00,axn,29.66
2023-08-21T03:52:00,axn,29.99
2023-08-21T03:53:00,axn,30.80
2023-08-21T03:54:00,axn,30.34
2023-08-21T03:55:00,axn,30.41
2023-08-21T03:56:00,axn,30.43
2023-08-21T03:57:00,axn,29.84
2023-08-21T03:58:00,axn,29.80
2023-08-21T03:59:00,axn,29.70
2023-08-21T04:00:00,axn,29.77
2023-08-21T04:01:00,axn,29.75
2023-08-21T04:02:00,axn,30.27
2023-08-21T04:03:00,axn,30.20
2023-08-21T04:04:00,axn,30.60
2023-08-21T04:05:00,axn,30.48
2023-08-21T04:06:00,axn,30.24
2023-08-21T04:07:00,axn,29.71
2023-08-21T04:08:00,axn,29.86
2023-08-21T04:09:00,axn,29.84
2023-08-21T04:10:00,axn,29.82
2023-08-21T04:11:00,axn,29.91
2023-08-21T04:12:00,axn,30.53
2023-08-21T04:13:00,axn,30.47
2023-08-21T04:14:00,axn,30.42
2023-08-21T04:15:00,axn,30.59
2023-08-21T04:16:00,axn,31.15
2023-08-21T04:17:00,axn,30.58
2023-08-21T04:18:00,axn,30.62
2023-08-21T04:19:00,axn,30.60
2023-08-21T04:20:00,axn,30.70
2023-08-21T04:21:00,axn,46.55
2023-08-21T04:22:00,axn,31.24
2023-08-21T04:23:00,axn,31.48
2023-08-21T04:24:00,axn,31.49
2023-08-21T04:25:00,axn,31.43
2023-08-21T04:26:00,axn,31.49
2023-08-21T04:27:00,axn,31.10
2023-08-21T04:28:00,axn,30.66
2023-08-21T04:29:00,axn,30.66
2023-08-21T04:30:00,axn,30.72
2023-08-21T04:31:00,axn,31.06
2023-08-21T04:32:00,axn,31.56
2023-08-21T04:33:00,axn,31.55
2023-08-21T04:34:00,axn,31.82
2023-08-21T04:35:00,axn,31.29
2023-08-21T04:36:00,axn,31.16
2023-08-21T04:37:00,axn,30.58
2023-08-21T04:38:00,axn,30.57
2023-08-21T04:39:00,axn,30.85
2023-08-21T04:40:00,axn,30.57
2023-08-21T04:41:00,axn,31.16
2023-08-21T04:42:00,axn,31.21
2023-08-21T04:43:00,axn,31.25
2023-08-21T04:44:00,axn,31.16
2023-08-21T04:45:00,axn,31.23
2023-08-21T04:46:00,axn,30.66
2023-08-21T04:47:00,axn,30.46
2023-08-21T04:48:00,axn,30.51
2023-08-21T04:49:00,axn,30.56
2023-08-21T04:50:00,axn,30.63
2023-08-21T04:51:00,axn,31.08
2023-08-21T04:52:00,axn,30.91
2023-08-21T04:53:00,axn,30.83
2023-08-21T04:54:00,axn,30.43
2023-08-21T04:55:00,axn,30.51
2023-08-21T04:56:00,axn,30.16
2023-08-21T04:57:00,axn,29.63
2023-08-21T04:58:00,axn,30.02
2023-08-21T04:59:00,axn,30.00
2023-08-21T05:00:00,axn,30.16
2023-08-21T05:01:00,axn,30.66
2023-08-21T05:02:00,axn,30.50
2023-08-21T05:03:00,axn,30.55
2023-08-21T05:04:00,axn,30.37
2023-08-21T05:05:00,axn,30.63
2023-08-21T05:06:00,axn,30.26
2023-08-21T05:07:00,axn,29.91
2023-08-21T05:08:00,axn,29.86
2023-08-21T05:09:00,axn,29.95
2023-08-21T05:10:00,axn,30.26
2023-08-21T05:11:00,axn,30.05
2023-08-21T05:12:00,axn,30.29
2023-08-21T05:13:00,axn,30.45
2023-08-21T05:14:00,axn,30.37
2023-08-21T05:15:00,axn,29.75
2023-08-21T05:16:00,axn,29.74
2023-08-21T05:17:00,axn,29.71
2023-08-21T05:18:00,axn,29.79
2023-08-21T05:19:00,axn,29.73
2023-08-21T05:20:00,axn,30.17
2023-08-21T05:21:00,axn,30.16
2023-08-21T05:22:00,axn,30.02
2023-08-21T05:23:00,axn,30.07
2023-08-21T05:24:00,axn,30.11
2023-08-21T05:25:00,axn,29.47
2023-08-21T05:26:00,axn,29.66
2023-08-21T05:27:00,axn,29.57
2023-08-21T05:28:00,axn,29.47
2023-08-21T05:29:00,axn,29.47
2023-08-21T05:30:00,axn,29.98
2023-08-21T05:31:00,axn,32.81
2023-08-21T05:32:00,axn,32.52
2023-08-21T05:33:00,axn,32.75
2023-08-21T05:34:00,axn,32.65
2023-08-21T05:35:00,axn,32.03
2023-08-21T05:36:00,axn,32.28
2023-08-21T05:37:00,axn,31.91
2023-08-21T05:38:00,axn,31.93
2023-08-21T05:39:00,axn,32.41
2023-08-21T05:40:00,axn,32.44
2023-08-21T05:41:00,axn,32.48
2023-08-21T05:42:00,axn,32.63
2023-08-21T05:43:00,axn,32.91
2023-08-21T05:44:00,axn,31.93
2023-08-21T05:45:00,axn,31.91
2023-08-21T05:46:00,axn,31.75
2023-08-21T05:47:00,axn,31.72
2023-08-21T05:48:00,axn,31.53
2023-08-21T05:49:00,axn,32.16
2023-08-21T05:50:00,axn,32.38
2023-08-21T05:51:00,axn,32.29
2023-08-21T05:52:00,axn,32.40
2023-08-21T05:53:00,axn,35.08
2023-08-21T05:54:00,axn,34.40
2023-08-21T05:55:00,axn,34.32
2023-08-21T05:56:00,axn,31.81
2023-08-21T05:57:00,axn,31.95
2023-08-21T05:58:00,axn,32.31
2023-08-21T05:59:00,axn,32.34
2023-08-21T06:00:00,axn,32.30
2023-08-21T06:01:00,axn,32.30
2023-08-21T06:02:00,axn,36.50
2023-08-21T06:03:00,axn,35.91
2023-08-21T06:04:00,axn,35.85
2023-08-21T06:05:00,axn,31.30
2023-08-21T06:06:00,axn,31.32
2023-08-21T06:07:00,axn,30.84
2023-08-21T06:08:00,axn,31.34
2023-08-21T06:09:00,axn,31.69
2023-08-21T06:10:00,axn,31.42
2023-08-21T06:11:00,axn,31.44
2023-08-21T06:12:00,axn,31.29
2023-08-21T06:13:00,axn,31.31
2023-08-21T06:14:00,axn,31.26
2023-08-21T06:15:00,axn,45.35
2023-08-21T06:16:00,axn,45.22
2023-08-21T06:17:00,axn,45.23
2023-08-21T06:18:00,axn,45.77
2023-08-21T06:19:00,axn,45.05
2023-08-21T06:20:00,axn,31.31
2023-08-21T06:21:00,axn,34.25
2023-08-21T06:22:00,axn,34.16
2023-08-21T06:23:00,axn,31.12
2023-08-21T06:24:00,axn,30.72
2023-08-21T06:25:00,axn,30.45
2023-08-21T06:26:00,axn,30.46
2023-08-21T06:27:00,axn,30.91
2023-08-21T06:28:00,axn,31.01
2023-08-21T06:29:00,axn,31.04
2023-08-21T06:30:00,axn,30.95
2023-08-21T06:31:00,axn,31.02
2023-08-21T06:32:00,axn,30.44
2023-08-21T06:33:00,axn,30.41
2023-08-21T06:34:00,axn,30.64
2023-08-21T06:35:00,axn,30.95
2023-08-21T06:36:00,axn,30.85
2023-08-21T06:37:00,axn,31.08
2023-08-21T06:38:00,axn,31.16
2023-08-21T06:39:00,axn,30.98
2023-08-21T06:40:00,axn,30.92
2023-08-21T06:41:00,axn,30.91
2023-08-21T06:42:00,axn,30.34
2023-08-21T06:43:00,axn,30.35
2023-08-21T06:44:00,axn,30.24
2023-08-21T06:45:00,axn,30.27
2023-08-21T06:46:00,axn,30.41
2023-08-21T06:47:00,axn,30.90
2023-08-21T06:48:00,axn,31.03
2023-08-21T06:49:00,axn,30.96
2023-08-21T06:50:00,axn,30.96
2023-08-21T06:51:00,axn,31.10
2023-08-21T06:52:00,axn,30.49
2023-08-21T06:53:00,axn,30.74
2023-08-21T06:54:00,axn,30.13
2023-08-21T06:55:00,axn,29.99
2023-08-21T06:56:00,axn,30.59
2023-08-21T06:57:00,axn,30.74
2023-08-21T06:58:00,axn,31.27
2023-08-21T06:59:00,axn,30.79
2023-08-21T07:00:00,axn,30.77
2023-08-21T07:01:00,axn,32.97
2023-08-21T07:02:00,axn,35.04
2023-08-21T07:03:00,axn,36.88
2023-08-21T07:04:00,axn,36.29
2023-08-21T07:05:00,axn,36.73
2023-08-21T07:06:00,axn,36.98
2023-08-21T07:07:00,axn,37.52
2023-08-21T07:08:00,axn,37.59
2023-08-21T07:09:00,axn,37.65
2023-08-21T07:10:00,axn,37.73
2023-08-21T07:11:00,axn,36.94
2023-08-21T07:12:00,axn,36.91
2023-08-21T07:13:00,axn,36.85
2023-08-21T07:14:00,axn,36.79
2023-08-21T07:15:00,axn,36.60
2023-08-21T07:16:00,axn,36.55
2023-08-21T07:17:00,axn,36.46
2023-08-21T07:18:00,axn,36.84
2023-08-21T07:19:00,axn,36.99
2023-08-21T07:20:00,axn,37.08
2023-08-21T07:21:00,axn,36.94
2023-08-21T07:22:00,axn,37.25
2023-08-21T07:23:00,axn,36.59
2023-08-21T07:24:00,axn,36.55
2023-08-21T07:25:00,axn,36.76
2023-08-21T07:26:00,axn,36.71
2023-08-21T07:27:00,axn,36.39
2023-08-21T07:28:00,axn,36.34
2023-08-21T07:29:00,axn,36.57
2023-08-21T07:30:00,axn,36.48
2023-08-21T07:31:00,axn,37.00
2023-08-21T07:32:00,axn,37.27
2023-08-21T07:33:00,axn,36.44
2023-08-21T07:34:00,axn,36.81
2023-08-21T07:35:00,axn,36.26
2023-08-21T07:36:00,axn,36.68
2023-08-21T07:37:00,axn,36.65
2023-08-21T07:38:00,axn,36.29
2023-08-21T07:39:00,axn,36.18
2023-08-21T07:40:00,axn,36.06
2023-08-21T07:41:00,axn,36.04
2023-08-21T07:42:00,axn,35.98
2023-08-21T07:43:00,axn,36.53
2023-08-21T07:44:00,axn,36.52
2023-08-21T07:45:00,axn,37.13
2023-08-21T07:46:00,axn,36.98
2023-08-21T07:47:00,axn,38.53
2023-08-21T07:48:00,axn,38.77
2023-08-21T07:49:00,axn,38.02
2023-08-21T07:50:00,axn,38.38
2023-08-21T07:51:00,axn,38.25
2023-08-21T07:52:00,axn,38.35
2023-08-21T07:53:00,axn,38.52
2023-08-21T07:54:00,axn,38.62
2023-08-21T07:55:00,axn,38.72
2023-08-21T07:56:00,axn,39.36
2023-08-21T07:57:00,axn,39.15
2023-08-21T07:58:00,axn,39.06
2023-08-21T07:59:00,axn,39.06
2023-08-21T08:00:00,axn,39.20
2023-08-21T08:01:00,axn,38.44
2023-08-21T08:02:00,axn,41.68
2023-08-21T08:03:00,axn,41.82
2023-08-21T08:04:00,axn,41.56
2023-08-21T08:05:00,axn,41.89
2023-08-21T08:06:00,axn,42.01
2023-08-21T08:07:00,axn,41.88
2023-08-21T08:08:00,axn,42.73
2023-08-21T08:09:00,axn,42.86
2023-08-21T08:10:00,axn,42.63
2023-08-21T08:11:00,axn,43.12
2023-08-21T08:12:00,axn,42.65
2023-08-21T08:13:00,axn,42.40
2023-08-21T08:14:00,axn,42.63
2023-08-21T08:15:00,axn,42.28
2023-08-21T08:16:00,axn,42.32
2023-08-21T08:17:00,axn,42.16
2023-08-21T08:18:00,axn,42.25
2023-08-21T08:19:00,axn,43.41
2023-08-21T08:20:00,axn,42.98
2023-08-21T08:21:00,axn,43.11
2023-08-21T08:22:00,axn,43.04
2023-08-21T08:23:00,axn,43.03
2023-08-21T08:24:00,axn,42.97
2023-08-21T08:25:00,axn,42.34
2023-08-21T08:26:00,axn,42.23
2023-08-21T08:27:00,axn,42.37
2023-08-21T08:28:00,axn,42.13
2023-08-21T08:29:00,axn,42.35
2023-08-21T08:30:00,axn,42.55
2023-08-21T08:31:00,axn,42.40
2023-08-21T08:32:00,axn,43.05
2023-08-21T08:33:00,axn,43.29
2023-08-21T08:34:00,axn,43.28
2023-08-21T08:35:00,axn,43.14
2023-08-21T08:36:00,axn,42.92
2023-08-21T08:37:00,axn,42.93
2023-08-21T08:38:00,axn,42.35
2023-08-21T08:39:00,axn,42.10
2023-08-21T08:40:00,axn,42.17
2023-08-21T08:41:00,axn,42.02
2023-08-21T08:42:00,axn,42.30
2023-08-21T08:43:00,axn,42.33
2023-08-21T08:44:00,axn,43.06
2023-08-21T08:45:00,axn,42.98
2023-08-21T08:46:00,axn,43.18
2023-08-21T08:47:00,axn,43.09
2023-08-21T08:48:00,axn,43.20
2023-08-21T08:49:00,axn,43.13
2023-08-21T08:50:00,axn,42.10
2023-08-21T08:51:00,axn,42.21
2023-08-21T08:52:00,axn,41.77
2023-08-21T08:53:00,axn,41.91
2023-08-21T08:54:00,axn,41.94
2023-08-21T08:55:00,axn,42.23
2023-08-21T08:56:00,axn,42.65
2023-08-21T08:57:00,axn,43.13
2023-08-21T08:58:00,axn,43.30
2023-08-21T08:59:00,axn,43.04
2023-08-21T09:00:00,axn,42.98
2023-08-21T09:01:00,axn,43.10
2023-08-21T09:02:00,axn,42.41
2023-08-21T09:03:00,axn,42.22
2023-08-21T09:04:00,axn,42.28
2023-08-21T09:05:00,axn,42.62
2023-08-21T09:06:00,axn,42.29
2023-08-21T09:07:00,axn,42.47
2023-08-21T09:08:00,axn,42.90
2023-08-21T09:09:00,axn,43.52
2023-08-21T09:10:00,axn,43.40
2023-08-21T09:11:00,axn,43.19
2023-08-21T09:12:00,axn,43.27
2023-08-21T09:13:00,axn,43.28
2023-08-21T09:14:00,axn,42.25
2023-08-21T09:15:00,axn,42.29
2023-08-21T09:16:00,axn,42.64
2023-08-21T09:17:00,axn,42.23
2023-08-21T09:18:00,axn,42.39
2023-08-21T09:19:00,axn,43.00
2023-08-21T09:20:00,axn,43.76
2023-08-21T09:21:00,axn,43.98
2023-08-21T09:22:00,axn,43.98
2023-08-21T09:23:00,axn,43.74
2023-08-21T09:24:00,axn,53.92
2023-08-21T09:25:00,axn,53.91
2023-08-21T09:26:00,axn,53.61
2023-08-21T09:27:00,axn,52.90
2023-08-21T09:28:00,axn,45.40
2023-08-21T09:29:00,axn,45.50
2023-08-21T09:30:00,axn,45.15
2023-08-21T09:31:00,axn,42.88
2023-08-21T09:32:00,axn,46.48
2023-08-21T09:33:00,axn,46.15
2023-08-21T09:34:00,axn,43.24
2023-08-21T09:35:00,axn,43.14
2023-08-21T09:36:00,axn,42.91
2023-08-21T09:37:00,axn,42.69
2023-08-21T09:38:00,axn,42.19
2023-08-21T09:39:00,axn,42.34
2023-08-21T09:40:00,axn,41.87
2023-08-21T09:41:00,axn,42.01
2023-08-21T09:42:00,axn,42.30
2023-08-21T09:43:00,axn,42.59
2023-08-21T09:44:00,axn,42.95
2023-08-21T09:45:00,axn,42.59
2023-08-21T09:46:00,axn,42.75
2023-08-21T09:47:00,axn,42.37
2023-08-21T09:48:00,axn,42.58
2023-08-21T09:49:00,axn,42.72
2023-08-21T09:50:00,axn,42.43
2023-08-21T09:51:00,axn,42.12
2023-08-21T09:52:00,axn,41.89
2023-08-21T09:53:00,axn,42.06
2023-08-21T09:54:00,axn,42.01
2023-08-21T09:55:00,axn,42.17
2023-08-21T09:56:00,axn,42.97
2023-08-21T09:57:00,axn,43.08
2023-08-21T09:58:00,axn,43.06
2023-08-21T09:59:00,axn,42.84
2023-08-21T10:00:00,axn,42.85
2023-08-21T10:01:00,axn,42.84
2023-08-21T10:02:00,axn,42.77
2023-08-21T10:03:00,axn,42.72
2023-08-21T10:04:00,axn,42.77
2023-08-21T10:05:00,axn,42.76
2023-08-21T10:06:00,axn,42.81
2023-08-21T10:07:00,axn,42.71
2023-08-21T10:08:00,axn,42.75
2023-08-21T10:09:00,axn,42.68
2023-08-21T10:10:00,axn,42.74
2023-08-21T10:11:00,axn,42.87
2023-08-21T10:12:00,axn,42.84
2023-08-21T10:13:00,axn,48.31
2023-08-21T10:14:00,axn,48.33
2023-08-21T10:15:00,axn,48.06
2023-08-21T10:16:00,axn,42.33
2023-08-21T10:17:00,axn,42.42
2023-08-21T10:18:00,axn,42.22
2023-08-21T10:19:00,axn,42.77
2023-08-21T10:20:00,axn,42.41
2023-08-21T10:21:00,axn,42.58
2023-08-21T10:22:00,axn,42.61
2023-08-21T10:23:00,axn,42.64
2023-08-21T10:24:00,axn,42.44
2023-08-21T10:25:00,axn,42.34
2023-08-21T10:26:00,axn,42.45
2023-08-21T10:27:00,axn,42.36
2023-08-21T10:28:00,axn,42.39
2023-08-21T10:29:00,axn,42.02
2023-08-21T10:30:00,axn,41.81
2023-08-21T10:31:00,axn,42.04
2023-08-21T10:32:00,axn,42.09
2023-08-21T10:33:00,axn,41.99
2023-08-21T10:34:00,axn,42.02
2023-08-21T10:35:00,axn,42.45
2023-08-21T10:36:00,axn,42.33
2023-08-21T10:37:00,axn,42.15
2023-08-21T10:38:00,axn,42.31
2023-08-21T10:39:00,axn,42.46
2023-08-21T10:40:00,axn,41.99
2023-08-21T10:41:00,axn,42.04
2023-08-21T10:42:00,axn,42.11
2023-08-21T10:43:00,axn,42.34
2023-08-21T10:44:00,axn,42.22
2023-08-21T10:45:00,axn,42.13
2023-08-21T10:46:00,axn,42.06
2023-08-21T10:47:00,axn,42.12
2023-08-21T10:48:00,axn,42.03
2023-08-21T10:49:00,axn,41.90
2023-08-21T10:50:00,axn,41.71
2023-08-21T10:51:00,axn,41.81
2023-08-21T10:52:00,axn,41.53
2023-08-21T10:53:00,axn,41.75
2023-08-21T10:54:00,axn,42.11
2023-08-21T10:55:00,axn,42.05
2023-08-21T10:56:00,axn,42.19
2023-08-21T10:57:00,axn,42.03
2023-08-21T10:58:00,axn,42.00
2023-08-21T10:59:00,axn,41.99
2023-08-21T11:00:00,axn,41.84
2023-08-21T11:01:00,axn,41.94
2023-08-21T11:02:00,axn,42.34
2023-08-21T11:03:00,axn,41.98
2023-08-21T11:04:00,axn,42.29
2023-08-21T11:05:00,axn,42.13
2023-08-21T11:06:00,axn,42.09
2023-08-21T11:07:00,axn,42.39
2023-08-21T11:08:00,axn,42.24
2023-08-21T11:09:00,axn,42.03
2023-08-21T11:10:00,axn,42.17
2023-08-21T11:11:00,axn,41.72
2023-08-21T11:12:00,axn,41.64
2023-08-21T11:13:00,axn,42.03
2023-08-21T11:14:00,axn,41.81
2023-08-21T11:15:00,axn,41.67
2023-08-21T11:16:00,axn,41.77
2023-08-21T11:17:00,axn,52.32
2023-08-21T11:18:00,axn,41.92
2023-08-21T11:19:00,axn,42.24
2023-08-21T11:20:00,axn,41.88
2023-08-21T11:21:00,axn,41.80
2023-08-21T11:22:00,axn,41.64
2023-08-21T11:23:00,axn,41.63
2023-08-21T11:24:00,axn,41.48
2023-08-21T11:25:00,axn,41.80
2023-08-21T11:26:00,axn,41.46
2023-08-21T11:27:00,axn,41.79
2023-08-21T11:28:00,axn,41.61
2023-08-21T11:29:00,axn,42.05
2023-08-21T11:30:00,axn,42.18
2023-08-21T11:31:00,axn,41.73
2023-08-21T11:32:00,axn,42.14
2023-08-21T11:33:00,axn,55.93
2023-08-21T11:34:00,axn,55.99
2023-08-21T11:35:00,axn,55.79
2023-08-21T11:36:00,axn,55.70
2023-08-21T11:37:00,axn,55.47
2023-08-21T11:38:00,axn,41.76
2023-08-21T11:39:00,axn,41.94
2023-08-21T11:40:00,axn,41.83
2023-08-21T11:41:00,axn,41.91
2023-08-21T11:42:00,axn,41.74
2023-08-21T11:43:00,axn,41.72
2023-08-21T11:44:00,axn,42.12
2023-08-21T11:45:00,axn,42.03
2023-08-21T11:46:00,axn,43.09
2023-08-21T11:47:00,axn,42.43
2023-08-21T11:48:00,axn,41.94
2023-08-21T11:49:00,axn,42.13
2023-08-21T11:50:00,axn,42.29
2023-08-21T11:51:00,axn,41.75
2023-08-21T11:52:00,axn,41.70
2023-08-21T11:53:00,axn,41.97
2023-08-21T11:54:00,axn,41.98
2023-08-21T11:55:00,axn,42.09
2023-08-21T11:56:00,axn,42.25
2023-08-21T11:57:00,axn,42.18
2023-08-21T11:58:00,axn,42.14
2023-08-21T11:59:00,axn,41.89
2023-08-21T12:00:00,axn,42.26
2023-08-21T12:01:00,axn,41.94
2023-08-21T12:02:00,axn,41.74
2023-08-21T12:03:00,axn,41.79
2023-08-21T12:04:00,axn,41.77
2023-08-21T12:05:00,axn,42.19
2023-08-21T12:06:00,axn,42.08
2023-08-21T12:07:00,axn,42.19
2023-08-21T12:08:00,axn,42.16
2023-08-21T12:09:00,axn,42.16
2023-08-21T12:10:00,axn,42.63
2023-08-21T12:11:00,axn,42.29
2023-08-21T12:12:00,axn,42.35
2023-08-21T12:13:00,axn,42.35
2023-08-21T12:14:00,axn,42.71
2023-08-21T12:15:00,axn,42.43
2023-08-21T12:16:00,axn,42.31
2023-08-21T12:17:00,axn,42.57
2023-08-21T12:18:00,axn,42.52
2023-08-21T12:19:00,axn,43.49
2023-08-21T12:20:00,axn,42.55
2023-08-21T12:21:00,axn,42.40
2023-08-21T12:22:00,axn,47.90
2023-08-21T12:23:00,axn,42.43
2023-08-21T12:24:00,axn,42.33
2023-08-21T12:25:00,axn,42.34
2023-08-21T12:26:00,axn,41.88
2023-08-21T12:27:00,axn,41.98
2023-08-21T12:28:00,axn,41.82
2023-08-21T12:29:00,axn,42.07
2023-08-21T12:30:00,axn,42.34
2023-08-21T12:31:00,axn,42.45
2023-08-21T12:32:00,axn,42.54
2023-08-21T12:33:00,axn,42.73
2023-08-21T12:34:00,axn,43.00
2023-08-21T12:35:00,axn,42.68
2023-08-21T12:36:00,axn,42.18
2023-08-21T12:37:00,axn,42.25
2023-08-21T12:38:00,axn,42.25
2023-08-21T12:39:00,axn,42.25
2023-08-21T12:40:00,axn,42.17
2023-08-21T12:41:00,axn,42.37
2023-08-21T12:42:00,axn,42.13
2023-08-21T12:43:00,axn,42.49
2023-08-21T12:44:00,axn,42.18
2023-08-21T12:45:00,axn,42.35
2023-08-21T12:46:00,axn,42.21
2023-08-21T12:47:00,axn,42.12
2023-08-21T12:48:00,axn,42.18
2023-08-21T12:49:00,axn,42.15
2023-08-21T12:50:00,axn,41.97
2023-08-21T12:51:00,axn,42.04
2023-08-21T12:52:00,axn,42.00
2023-08-21T12:53:00,axn,41.96
2023-08-21T12:54:00,axn,42.04
2023-08-21T12:55:00,axn,42.01
2023-08-21T12:56:00,axn,42.45
2023-08-21T12:57:00,axn,44.63
2023-08-21T12:58:00,axn,44.62
2023-08-21T12:59:00,axn,44.85
2023-08-21T13:00:00,axn,42.25
2023-08-21T13:01:00,axn,42.23
2023-08-21T13:02:00,axn,42.25
2023-08-21T13:03:00,axn,46.47
2023-08-21T13:04:00,axn,46.20
2023-08-21T13:05:00,axn,46.30
2023-08-21T13:06:00,axn,41.92
2023-08-21T13:07:00,axn,40.06
2023-08-21T13:08:00,axn,40.08
2023-08-21T13:09:00,axn,39.88
2023-08-21T13:10:00,axn,40.09
2023-08-21T13:11:00,axn,39.70
2023-08-21T13:12:00,axn,39.80
2023-08-21T13:13:00,axn,39.76
2023-08-21T13:14:00,axn,40.12
2023-08-21T13:15:00,axn,39.56
2023-08-21T13:16:00,axn,39.69
2023-08-21T13:17:00,axn,40.05
2023-08-21T13:18:00,axn,40.00